�N����,����,�g�[���i���ԁj���x,�g�[�����x,��g�[���i���ցj���x,����
 2003/10/01, 0:00,26.5,43,24.6,22.8
 2003/10/01, 0:15,26.5,44,24.6,22.8
 2003/10/01, 0:30,26.6,44,24.7,22.8
 2003/10/01, 0:45,26.6,44,24.6,22.9
 2003/10/01, 1:00,26.6,44,24.7,22.9
 2003/10/01, 1:15,26.6,44,24.7,22.4
 2003/10/01, 1:30,26.5,44,24.7,22.4
 2003/10/01, 1:45,26.3,44,24.7,22.5
 2003/10/01, 2:00,26.3,44,24.7,22.5
 2003/10/01, 2:15,26.2,45,24.6,22.5
 2003/10/01, 2:30,26.2,45,24.6,22.6
 2003/10/01, 2:45,26.2,45,24.6,22.6
 2003/10/01, 3:00,26.1,45,24.6,22.6
 2003/10/01, 3:15,26,45,24.6,22.6
 2003/10/01, 3:30,26,45,24.6,22.7
 2003/10/01, 3:45,26,45,24.6,22.7
 2003/10/01, 4:00,25.9,45,24.6,22.7
 2003/10/01, 4:15,25.9,45,24.6,22.8
 2003/10/01, 4:30,25.9,45,24.5,22.8
 2003/10/01, 4:45,25.9,45,24.6,22.8
 2003/10/01, 5:00,25.8,45,24.5,22.9
 2003/10/01, 5:15,25.8,45,24.5,23.3
 2003/10/01, 5:30,25.8,45,24.4,21.3
 2003/10/01, 5:45,25.9,45,24.5,21.5
 2003/10/01, 6:00,25.9,46,24.3,21.6
 2003/10/01, 6:15,25.9,46,24.2,22.7
 2003/10/01, 6:30,26,45,24.1,22.9
 2003/10/01, 6:45,25.9,44,23.9,22.9
 2003/10/01, 7:00,26,44,24,22.9
 2003/10/01, 7:15,26.1,44,24.1,22.1
 2003/10/01, 7:30,26,44,24.2,22.1
 2003/10/01, 7:45,26,44,24.4,22.1
 2003/10/01, 8:00,26.1,45,24.3,22.2
 2003/10/01, 8:15,26,44,24.2,22.2
 2003/10/01, 8:30,25.9,44,24.1,22.2
 2003/10/01, 8:45,25.8,44,24.1,22.3
 2003/10/01, 9:00,25.8,45,24,22.4
 2003/10/01, 9:15,25.7,44,23.9,22.4
 2003/10/01, 9:30,25.7,46,24,22.5
 2003/10/01, 9:45,25.6,47,23.8,22.5
 2003/10/01,10:00,25.5,45,23.9,22.5
 2003/10/01,10:15,25.5,44,23.8,22.5
 2003/10/01,10:30,25.5,45,23.8,22.5
 2003/10/01,10:45,25.5,44,23.9,22.5
 2003/10/01,11:00,25.5,44,23.8,22.6
 2003/10/01,11:15,25.5,44,23.8,22.6
 2003/10/01,11:30,25.6,44,23.8,22.6
 2003/10/01,11:45,25.7,43,23.9,22.6
 2003/10/01,12:00,25.8,42,23.8,22.7
 2003/10/01,12:15,25.9,42,23.9,22.7
 2003/10/01,12:30,26,42,24,22.7
 2003/10/01,12:45,26.2,41,24,22.8
 2003/10/01,13:00,26.3,41,24.1,22.8
 2003/10/01,13:15,26.4,41,24.1,22.8
 2003/10/01,13:30,26.5,41,24.2,22.8
 2003/10/01,13:45,26.7,41,24.3,22.9
 2003/10/01,14:00,26.9,40,24.4,22.9
 2003/10/01,14:15,26.9,39,24.4,22.9
 2003/10/01,14:30,27,39,24.5,22.9
 2003/10/01,14:45,27.1,38,24.5,23
 2003/10/01,15:00,27.2,39,24.5,23
 2003/10/01,15:15,27.2,38,24.6,23
 2003/10/01,15:30,27,39,24.6,23
 2003/10/01,15:45,26.6,39,24.4,22.7
 2003/10/01,16:00,26.4,39,24.2,22.7
 2003/10/01,16:15,26.2,38,24.2,22.8
 2003/10/01,16:30,26,38,23.9,22.8
 2003/10/01,16:45,25.6,40,23.7,22.8
 2003/10/01,17:00,25.8,40,23.8,22.9
 2003/10/01,17:15,25.9,39,23.9,22.9
 2003/10/01,17:30,25.9,40,23.9,22.9
 2003/10/01,17:45,25.9,40,24,22.9
 2003/10/01,18:00,25.9,40,24.1,22.9
 2003/10/01,18:15,25.9,41,24.4,22.9
 2003/10/01,18:30,26.1,41,24.6,22.9
 2003/10/01,18:45,26.1,41,24.3,22.9
 2003/10/01,19:00,26,42,24.3,22.9
 2003/10/01,19:15,26,42,24.3,22.9
 2003/10/01,19:30,26.1,42,24.4,23.1
 2003/10/01,19:45,26.1,43,24.4,23.1
 2003/10/01,20:00,26.2,43,24.4,23.1
 2003/10/01,20:15,26.2,44,24.4,23.2
 2003/10/01,20:30,26.3,45,24.4,23.2
 2003/10/01,20:45,26.4,45,24.5,23.2
 2003/10/01,21:00,26.5,45,24.6,22.8
 2003/10/01,21:15,26.5,45,24.7,22.8
 2003/10/01,21:30,26.6,45,24.7,22.2
 2003/10/01,21:45,26.6,46,24.8,22.2
 2003/10/01,22:00,26.7,48,24.8,22.4
 2003/10/01,22:15,26.7,47,24.9,22.4
 2003/10/01,22:30,26.7,47,25,22.5
 2003/10/01,22:45,26.8,47,25.1,22.7
 2003/10/01,23:00,26.8,47,25,22.8
 2003/10/01,23:15,26.8,47,25.1,22.2
 2003/10/01,23:30,26.9,47,25.1,22.2
 2003/10/01,23:45,26.9,47,25.1,22.4
 2003/10/02, 0:00,26.9,47,25.1,22.4
 2003/10/02, 0:15,26.8,47,25.1,22.4
 2003/10/02, 0:30,26.8,47,25.2,22.5
 2003/10/02, 0:45,26.8,47,25.1,22.5
 2003/10/02, 1:00,26.7,47,25.1,22.5
 2003/10/02, 1:15,26.7,47,25.1,22.5
 2003/10/02, 1:30,26.6,47,25.1,22.5
 2003/10/02, 1:45,26.6,48,25,22.6
 2003/10/02, 2:00,26.5,48,25,22.6
 2003/10/02, 2:15,26.4,48,25,22.6
 2003/10/02, 2:30,26.3,48,25,22.7
 2003/10/02, 2:45,26.3,48,24.9,22.7
 2003/10/02, 3:00,26.2,49,25,22.7
 2003/10/02, 3:15,26.2,49,24.9,22.8
 2003/10/02, 3:30,26.2,49,24.9,22.8
 2003/10/02, 3:45,26.1,49,24.9,22.8
 2003/10/02, 4:00,26.1,49,24.8,22.9
 2003/10/02, 4:15,26.1,49,24.8,22.9
 2003/10/02, 4:30,26.1,49,24.8,22.9
 2003/10/02, 4:45,26,49,24.8,23
 2003/10/02, 5:00,26,49,24.8,23
 2003/10/02, 5:15,26,49,24.8,23
 2003/10/02, 5:30,26,49,24.7,22.7
 2003/10/02, 5:45,26.1,49,24.6,22.8
 2003/10/02, 6:00,26.2,49,24.6,22.8
 2003/10/02, 6:15,26.3,50,24.7,22.5
 2003/10/02, 6:30,26.3,50,24.9,22.5
 2003/10/02, 6:45,26.4,50,25,22.8
 2003/10/02, 7:00,26.5,51,25.3,22.8
 2003/10/02, 7:15,26.5,51,25.1,22.9
 2003/10/02, 7:30,26.5,51,25.3,22.6
 2003/10/02, 7:45,26.4,50,25.2,22.3
 2003/10/02, 8:00,26.3,50,25,22.3
 2003/10/02, 8:15,26.3,49,24.9,22.4
 2003/10/02, 8:30,26.2,49,24.8,22.4
 2003/10/02, 8:45,26.1,49,24.6,22.4
 2003/10/02, 9:00,26.1,50,24.6,22.5
 2003/10/02, 9:15,26.1,50,24.7,22.5
 2003/10/02, 9:30,26.1,50,24.6,22.5
 2003/10/02, 9:45,26.1,50,24.5,22.6
 2003/10/02,10:00,26.1,51,24.6,22.6
 2003/10/02,10:15,26.1,51,24.5,22.7
 2003/10/02,10:30,26.1,51,24.5,22.7
 2003/10/02,10:45,26,51,24.5,22.7
 2003/10/02,11:00,26,52,24.6,22.8
 2003/10/02,11:15,26,52,24.5,22.9
 2003/10/02,11:30,26,52,24.6,22.9
 2003/10/02,11:45,26,52,24.6,22.9
 2003/10/02,12:00,26,52,24.6,22.9
 2003/10/02,12:15,26.2,52,24.6,23
 2003/10/02,12:30,26.2,52,24.7,23
 2003/10/02,12:45,26.3,52,24.7,23
 2003/10/02,13:00,26.4,52,24.7,23.2
 2003/10/02,13:15,26.6,51,24.8,23.2
 2003/10/02,13:30,26.7,50,24.9,23.2
 2003/10/02,13:45,26.8,50,25,23.2
 2003/10/02,14:00,27,49,25.1,23.3
 2003/10/02,14:15,27.1,49,25,23.3
 2003/10/02,14:30,27.2,48,25.2,23.3
 2003/10/02,14:45,27.2,48,25.2,23.3
 2003/10/02,15:00,27.3,48,25.3,23.4
 2003/10/02,15:15,27.1,48,25.2,23.4
 2003/10/02,15:30,26.8,48,25,23.7
 2003/10/02,15:45,26.7,49,25.1,22.7
 2003/10/02,16:00,26.6,49,25,22.8
 2003/10/02,16:15,26.6,49,25,22.8
 2003/10/02,16:30,26.6,49,24.9,22.8
 2003/10/02,16:45,26.5,49,24.8,22.9
 2003/10/02,17:00,26.5,49,24.6,22.9
 2003/10/02,17:15,26.4,49,24.4,22.9
 2003/10/02,17:30,26.4,50,24.7,23
 2003/10/02,17:45,26.3,49,24.5,23
 2003/10/02,18:00,26.3,50,24.5,23
 2003/10/02,18:15,26.3,50,24.5,23
 2003/10/02,18:30,26.3,49,24.5,23.1
 2003/10/02,18:45,26.3,49,24.3,23.1
 2003/10/02,19:00,26.3,48,24.2,23.1
 2003/10/02,19:15,26.2,48,24.4,23.7
 2003/10/02,19:30,26.3,49,24.4,22.9
 2003/10/02,19:45,26.4,49,24.4,23
 2003/10/02,20:00,26.4,48,24.3,23
 2003/10/02,20:15,26.4,49,24.4,22.7
 2003/10/02,20:30,26.5,49,24.5,22.7
 2003/10/02,20:45,26.6,49,24.6,22.5
 2003/10/02,21:00,26.6,48,24.6,22.6
 2003/10/02,21:15,26.6,49,24.7,22.6
 2003/10/02,21:30,26.6,50,24.7,22.6
 2003/10/02,21:45,26.7,50,24.8,22.6
 2003/10/02,22:00,26.7,49,24.8,22.7
 2003/10/02,22:15,26.7,49,24.9,22.9
 2003/10/02,22:30,26.6,48,24.9,22.5
 2003/10/02,22:45,26.6,48,25,22.6
 2003/10/02,23:00,26.6,48,24.9,22.6
 2003/10/02,23:15,26.6,47,24.9,22.8
 2003/10/02,23:30,26.5,47,24.9,22.9
 2003/10/02,23:45,26.5,47,25,23.1
 2003/10/03, 0:00,26.4,47,24.9,22.8
 2003/10/03, 0:15,26.3,47,24.9,22.8
 2003/10/03, 0:30,26.2,47,24.9,22.8
 2003/10/03, 0:45,26.1,48,24.9,22.8
 2003/10/03, 1:00,26.1,48,24.8,22.9
 2003/10/03, 1:15,26,48,24.6,22.9
 2003/10/03, 1:30,26,48,24.7,22.9
 2003/10/03, 1:45,25.9,48,24.7,23
 2003/10/03, 2:00,25.9,48,24.7,23
 2003/10/03, 2:15,25.8,48,24.6,23
 2003/10/03, 2:30,25.8,48,24.6,23.1
 2003/10/03, 2:45,25.7,48,24.6,23.1
 2003/10/03, 3:00,25.6,48,24.5,23.1
 2003/10/03, 3:15,25.6,48,24.6,23.2
 2003/10/03, 3:30,25.5,48,24.6,23.2
 2003/10/03, 3:45,25.4,48,24.5,23.2
 2003/10/03, 4:00,25.4,48,24.4,23.3
 2003/10/03, 4:15,25.4,48,24.4,23.3
 2003/10/03, 4:30,25.3,48,24.4,23.4
 2003/10/03, 4:45,25.3,48,24.4,23.4
 2003/10/03, 5:00,25.3,48,24.3,23.4
 2003/10/03, 5:15,25.3,48,24.3,23.5
 2003/10/03, 5:30,25.3,48,24.3,21.9
 2003/10/03, 5:45,25.2,48,24.2,22
 2003/10/03, 6:00,25.4,48,24.2,22
 2003/10/03, 6:15,25.4,49,24.3,22.3
 2003/10/03, 6:30,25.7,49,24.3,22.5
 2003/10/03, 6:45,25.6,49,24.3,22.6
 2003/10/03, 7:00,25.6,49,24.3,22.6
 2003/10/03, 7:15,25.7,49,24.2,22.6
 2003/10/03, 7:30,25.7,49,24.6,22.8
 2003/10/03, 7:45,25.9,50,24.5,22.8
 2003/10/03, 8:00,26,51,24.5,22.8
 2003/10/03, 8:15,26.1,52,24.6,22.2
 2003/10/03, 8:30,25.9,51,24.5,22.2
 2003/10/03, 8:45,25.9,50,24.4,22.2
 2003/10/03, 9:00,25.8,49,24.3,22.4
 2003/10/03, 9:15,25.8,48,24.2,22.4
 2003/10/03, 9:30,25.8,47,24.2,22.3
 2003/10/03, 9:45,25.8,47,24.4,22.2
 2003/10/03,10:00,25.8,47,24.4,22.3
 2003/10/03,10:15,25.8,47,24.2,22.3
 2003/10/03,10:30,25.8,47,24.2,22.3
 2003/10/03,10:45,25.8,47,24.3,22.4
 2003/10/03,11:00,25.8,48,24.3,22.4
 2003/10/03,11:15,25.9,47,24.2,22.4
 2003/10/03,11:30,25.9,47,24.4,22.4
 2003/10/03,11:45,26,47,24.4,22.5
 2003/10/03,12:00,26,46,24.3,22.5
 2003/10/03,12:15,26,46,24.4,22.5
 2003/10/03,12:30,25.9,46,24.3,22.6
 2003/10/03,12:45,26,46,24.4,22.6
 2003/10/03,13:00,26.2,45,24.3,22.6
 2003/10/03,13:15,26.1,45,24.3,22.7
 2003/10/03,13:30,26.2,45,24.4,22.7
 2003/10/03,13:45,26.2,44,24.4,22.7
 2003/10/03,14:00,26.3,44,24.3,22.8
 2003/10/03,14:15,26.6,43,24.4,22.8
 2003/10/03,14:30,26.6,43,24.4,22.8
 2003/10/03,14:45,26.5,43,24.4,22.9
 2003/10/03,15:00,26.3,43,24.4,22.9
 2003/10/03,15:15,26.2,43,24.5,23.2
 2003/10/03,15:30,26.1,42,24.4,23
 2003/10/03,15:45,26,43,24.4,23
 2003/10/03,16:00,26,43,24.4,23
 2003/10/03,16:15,25.9,43,24.3,23
 2003/10/03,16:30,25.9,43,24.3,23
 2003/10/03,16:45,25.8,43,24.3,23
 2003/10/03,17:00,25.8,43,24.2,23
 2003/10/03,17:15,25.7,43,24.2,23.1
 2003/10/03,17:30,25.7,43,24.2,23.1
 2003/10/03,17:45,25.6,42,24.3,23.1
 2003/10/03,18:00,25.7,42,24.2,23.1
 2003/10/03,18:15,25.8,42,24.2,23.2
 2003/10/03,18:30,25.8,42,24.2,23.2
 2003/10/03,18:45,25.8,43,24.2,23.2
 2003/10/03,19:00,25.9,43,24.2,23.2
 2003/10/03,19:15,25.9,42,24.3,24
 2003/10/03,19:30,26,42,24.2,23.2
 2003/10/03,19:45,26,42,24.3,23.2
 2003/10/03,20:00,26.1,43,24.3,23.2
 2003/10/03,20:15,26.2,44,24.3,23.2
 2003/10/03,20:30,26.2,45,24.3,23.2
 2003/10/03,20:45,26.3,45,24.4,22.9
 2003/10/03,21:00,26.4,44,24.4,22.1
 2003/10/03,21:15,26.4,45,24.5,22.1
 2003/10/03,21:30,26.4,45,24.6,22.2
 2003/10/03,21:45,26.5,45,24.6,22.2
 2003/10/03,22:00,26.5,45,24.7,22.2
 2003/10/03,22:15,26.5,45,24.7,22.3
 2003/10/03,22:30,26.5,45,24.7,22.3
 2003/10/03,22:45,26.5,45,24.7,22.8
 2003/10/03,23:00,26.5,45,24.8,22.8
 2003/10/03,23:15,26.4,45,24.8,22.8
 2003/10/03,23:30,26.4,45,24.8,22.8
 2003/10/03,23:45,26.4,45,24.8,22.9
 2003/10/04, 0:00,26.4,45,24.8,22.9
 2003/10/04, 0:15,26.4,45,24.8,22.9
 2003/10/04, 0:30,26.4,45,24.8,22.9
 2003/10/04, 0:45,26.4,45,24.9,23
 2003/10/04, 1:00,26.4,45,24.9,23
 2003/10/04, 1:15,26.5,45,24.9,23
 2003/10/04, 1:30,26.4,45,24.9,23.1
 2003/10/04, 1:45,26.4,45,24.9,23.1
 2003/10/04, 2:00,26.4,45,24.9,23.1
 2003/10/04, 2:15,26.4,45,24.9,23.2
 2003/10/04, 2:30,26.4,45,24.9,23.2
 2003/10/04, 2:45,26.3,46,24.9,23.2
 2003/10/04, 3:00,26.3,46,24.9,23.2
 2003/10/04, 3:15,26.2,46,24.8,23.3
 2003/10/04, 3:30,26.1,46,24.8,23.3
 2003/10/04, 3:45,26,46,24.8,23.3
 2003/10/04, 4:00,26,46,24.8,23.7
 2003/10/04, 4:15,25.9,46,24.7,23.7
 2003/10/04, 4:30,25.9,46,24.7,23.8
 2003/10/04, 4:45,25.8,46,24.7,23.8
 2003/10/04, 5:00,25.8,46,24.7,23.8
 2003/10/04, 5:15,25.8,47,24.6,22.2
 2003/10/04, 5:30,25.9,47,24.7,22.3
 2003/10/04, 5:45,25.9,48,24.6,22.3
 2003/10/04, 6:00,25.8,46,24.6,22.4
 2003/10/04, 6:15,25.9,46,24.6,22.4
 2003/10/04, 6:30,26,46,24.5,22.4
 2003/10/04, 6:45,26,46,24.5,22.4
 2003/10/04, 7:00,26,46,24.5,22.4
 2003/10/04, 7:15,26,46,24.5,22.5
 2003/10/04, 7:30,26.1,46,24.5,22.5
 2003/10/04, 7:45,26.1,46,24.6,22.5
 2003/10/04, 8:00,26.1,46,24.5,22.6
 2003/10/04, 8:15,26.1,46,24.6,22.6
 2003/10/04, 8:30,26.2,46,24.6,22.6
 2003/10/04, 8:45,26.2,46,24.6,22.7
 2003/10/04, 9:00,26.2,46,24.6,22.7
 2003/10/04, 9:15,26.2,47,24.6,22.8
 2003/10/04, 9:30,26.2,45,24.6,22.8
 2003/10/04, 9:45,26.2,45,24.5,22.8
 2003/10/04,10:00,26.2,44,24.5,22.8
 2003/10/04,10:15,26.2,44,24.5,22.9
 2003/10/04,10:30,26.3,44,24.5,21.9
 2003/10/04,10:45,26.3,44,24.7,21.9
 2003/10/04,11:00,26.3,44,24.6,22
 2003/10/04,11:15,26.3,44,24.7,22
 2003/10/04,11:30,26.3,44,24.7,22
 2003/10/04,11:45,26.4,43,24.8,22.3
 2003/10/04,12:00,26.6,44,24.9,22.4
 2003/10/04,12:15,26.8,44,24.9,22.4
 2003/10/04,12:30,26.7,43,25,22.2
 2003/10/04,12:45,26.6,43,24.9,22.2
 2003/10/04,13:00,26.5,43,24.9,22.2
 2003/10/04,13:15,26.4,43,24.9,22.2
 2003/10/04,13:30,26.6,43,24.9,22.3
 2003/10/04,13:45,26.7,43,25,22.3
 2003/10/04,14:00,26.6,43,24.9,22.4
 2003/10/04,14:15,26.5,43,24.9,22.4
 2003/10/04,14:30,26.6,42,24.9,22.4
 2003/10/04,14:45,26.5,42,24.8,22.5
 2003/10/04,15:00,26.4,43,24.9,22.5
 2003/10/04,15:15,26.3,43,24.7,22.5
 2003/10/04,15:30,26.2,43,24.7,22.6
 2003/10/04,15:45,26.2,43,24.8,22.9
 2003/10/04,16:00,26.1,44,24.8,22.9
 2003/10/04,16:15,26.3,45,24.7,22.9
 2003/10/04,16:30,26.3,44,24.6,22.9
 2003/10/04,16:45,26.2,44,24.5,22.9
 2003/10/04,17:00,26.1,44,24.5,23
 2003/10/04,17:15,26,44,24.5,23
 2003/10/04,17:30,26,44,24.5,23
 2003/10/04,17:45,26,44,24.5,23.2
 2003/10/04,18:00,26.1,44,24.4,22.7
 2003/10/04,18:15,26.1,44,24.4,22.3
 2003/10/04,18:30,26.1,44,24.4,22.3
 2003/10/04,18:45,26.1,44,24.4,22.5
 2003/10/04,19:00,26.1,44,24.4,22.6
 2003/10/04,19:15,26.2,45,24.5,22.6
 2003/10/04,19:30,26.3,45,24.5,22.8
 2003/10/04,19:45,26.3,46,24.6,22.8
 2003/10/04,20:00,26.4,46,24.6,22.8
 2003/10/04,20:15,26.4,46,24.6,22.8
 2003/10/04,20:30,26.4,45,24.7,22.9
 2003/10/04,20:45,26.4,45,24.7,22.9
 2003/10/04,21:00,26.4,45,24.8,22.6
 2003/10/04,21:15,26.4,45,24.7,22.6
 2003/10/04,21:30,26.4,45,24.7,22.7
 2003/10/04,21:45,26.5,46,24.7,22.9
 2003/10/04,22:00,26.5,45,24.8,22.9
 2003/10/04,22:15,26.4,46,24.8,22.9
 2003/10/04,22:30,26.4,46,24.7,22.9
 2003/10/04,22:45,26.4,46,24.7,22.3
 2003/10/04,23:00,26.4,46,24.7,22.3
 2003/10/04,23:15,26.4,45,24.7,22.4
 2003/10/04,23:30,26.4,45,24.7,22.4
 2003/10/04,23:45,26.3,45,24.7,22.4
 2003/10/05, 0:00,26.4,47,24.7,22.4
 2003/10/05, 0:15,26.3,46,24.8,22.5
 2003/10/05, 0:30,26.3,46,24.7,22.5
 2003/10/05, 0:45,26.2,45,24.7,22.6
 2003/10/05, 1:00,26.2,45,24.6,22.6
 2003/10/05, 1:15,26.2,45,24.6,22.6
 2003/10/05, 1:30,26.2,45,24.6,22.7
 2003/10/05, 1:45,26.2,45,24.6,22.7
 2003/10/05, 2:00,26.2,45,24.6,22.7
 2003/10/05, 2:15,26.2,45,24.6,22.8
 2003/10/05, 2:30,26.2,45,24.6,22.8
 2003/10/05, 2:45,26.1,45,24.6,22.8
 2003/10/05, 3:00,26.1,45,24.5,22.9
 2003/10/05, 3:15,26.1,45,24.5,22.9
 2003/10/05, 3:30,26,45,24.5,22.9
 2003/10/05, 3:45,25.9,46,24.5,23
 2003/10/05, 4:00,25.8,45,24.4,23
 2003/10/05, 4:15,25.7,45,24.4,23
 2003/10/05, 4:30,25.6,46,24.4,23.1
 2003/10/05, 4:45,25.6,46,24.3,23.1
 2003/10/05, 5:00,25.5,46,24.3,23.1
 2003/10/05, 5:15,25.5,46,24.3,23.2
 2003/10/05, 5:30,25.5,46,24.3,23.2
 2003/10/05, 5:45,25.4,46,24.3,23.2
 2003/10/05, 6:00,25.4,46,24.2,23.2
 2003/10/05, 6:15,25.4,46,24.2,23.3
 2003/10/05, 6:30,25.4,46,24.2,23.3
 2003/10/05, 6:45,25.3,46,24.2,23.3
 2003/10/05, 7:00,25.3,46,24.1,23.4
 2003/10/05, 7:15,25.4,47,24.2,23.4
 2003/10/05, 7:30,25.4,47,24.4,22.3
 2003/10/05, 7:45,25.4,47,24.4,22.3
 2003/10/05, 8:00,25.6,48,24.4,22.5
 2003/10/05, 8:15,25.6,47,24.2,22.5
 2003/10/05, 8:30,25.7,47,24.2,22.5
 2003/10/05, 8:45,25.7,46,24.3,22.5
 2003/10/05, 9:00,25.7,46,24.2,22
 2003/10/05, 9:15,25.7,45,24.1,22
 2003/10/05, 9:30,25.7,45,24.2,21.6
 2003/10/05, 9:45,25.7,45,24.2,21.5
 2003/10/05,10:00,25.8,45,24.1,21.6
 2003/10/05,10:15,25.9,45,24.1,21.6
 2003/10/05,10:30,25.8,44,24.1,21.6
 2003/10/05,10:45,25.8,44,24.1,21.7
 2003/10/05,11:00,25.7,44,24.1,21.7
 2003/10/05,11:15,25.8,44,24.1,21.7
 2003/10/05,11:30,25.8,44,24.2,21.8
 2003/10/05,11:45,25.9,44,24.1,21.8
 2003/10/05,12:00,25.9,44,24.2,21.9
 2003/10/05,12:15,25.9,44,24.2,21.9
 2003/10/05,12:30,26,43,24.2,21.9
 2003/10/05,12:45,26.1,43,24.2,22
 2003/10/05,13:00,26.2,43,24.2,22
 2003/10/05,13:15,26.2,42,24.3,22.1
 2003/10/05,13:30,26.1,42,24.3,22.1
 2003/10/05,13:45,26.1,42,24.2,22.1
 2003/10/05,14:00,26,42,24.2,22.2
 2003/10/05,14:15,26,42,24.4,22.2
 2003/10/05,14:30,26,41,24.3,22.5
 2003/10/05,14:45,25.9,41,24.2,22.6
 2003/10/05,15:00,25.9,40,24.1,22.6
 2003/10/05,15:15,25.8,40,24.2,22.6
 2003/10/05,15:30,25.7,40,24.1,22
 2003/10/05,15:45,25.6,41,24,21.8
 2003/10/05,16:00,25.5,42,23.9,22.2
 2003/10/05,16:15,25.4,43,23.9,22.2
 2003/10/05,16:30,25.3,43,23.8,22.3
 2003/10/05,16:45,25.2,44,23.8,22.3
 2003/10/05,17:00,25.1,43,23.7,22.3
 2003/10/05,17:15,25.2,44,23.8,22.2
 2003/10/05,17:30,25.2,44,23.8,22.2
 2003/10/05,17:45,25.3,44,23.7,22.3
 2003/10/05,18:00,25.3,45,23.7,22.3
 2003/10/05,18:15,25.3,45,23.7,22.3
 2003/10/05,18:30,25.4,47,23.8,22.3
 2003/10/05,18:45,25.4,46,23.8,22.4
 2003/10/05,19:00,25.4,46,24,22.4
 2003/10/05,19:15,25.4,45,23.9,22.4
 2003/10/05,19:30,25.4,45,23.9,22.5
 2003/10/05,19:45,25.4,44,24,22.5
 2003/10/05,20:00,25.5,44,23.9,22.5
 2003/10/05,20:15,25.7,47,24,22.5
 2003/10/05,20:30,25.8,47,24,22.6
 2003/10/05,20:45,25.8,45,24.1,22.6
 2003/10/05,21:00,25.8,45,24.1,22.4
 2003/10/05,21:15,25.8,45,24.1,22.4
 2003/10/05,21:30,25.8,45,24.1,22.4
 2003/10/05,21:45,25.8,45,24.1,22.4
 2003/10/05,22:00,25.9,45,24.1,22.5
 2003/10/05,22:15,25.9,45,24.1,22.5
 2003/10/05,22:30,25.9,45,24.1,22.5
 2003/10/05,22:45,25.9,45,24.1,22.5
 2003/10/05,23:00,25.9,45,24.2,22.6
 2003/10/05,23:15,25.9,45,24.2,22.6
 2003/10/05,23:30,25.9,45,24.1,22.6
 2003/10/05,23:45,25.9,45,24.2,22.7
 2003/10/06, 0:00,25.9,45,24.2,22.7
 2003/10/06, 0:15,25.9,44,24.3,22.7
 2003/10/06, 0:30,25.9,44,24.2,22.3
 2003/10/06, 0:45,25.9,44,24.2,22.3
 2003/10/06, 1:00,25.9,45,24.2,22.3
 2003/10/06, 1:15,25.9,45,24.2,22.4
 2003/10/06, 1:30,25.8,45,24.2,22.4
 2003/10/06, 1:45,25.8,45,24.3,22.4
 2003/10/06, 2:00,25.8,45,24.2,22.4
 2003/10/06, 2:15,25.7,45,24.2,22.5
 2003/10/06, 2:30,25.7,45,24.1,22.5
 2003/10/06, 2:45,25.6,45,24.2,22.5
 2003/10/06, 3:00,25.6,45,24.2,22.6
 2003/10/06, 3:15,25.5,45,24.1,22.6
 2003/10/06, 3:30,25.4,45,24.2,22.6
 2003/10/06, 3:45,25.4,45,24.1,22.7
 2003/10/06, 4:00,25.4,45,24.1,22.7
 2003/10/06, 4:15,25.4,45,24.1,22.7
 2003/10/06, 4:30,25.3,46,24.1,22.7
 2003/10/06, 4:45,25.3,46,24,22.8
 2003/10/06, 5:00,25.3,46,24,22.8
 2003/10/06, 5:15,25.2,46,24,23.6
 2003/10/06, 5:30,25.2,45,23.8,22.1
 2003/10/06, 5:45,25.2,44,23.6,22.1
 2003/10/06, 6:00,25.2,44,23.5,22.1
 2003/10/06, 6:15,25.2,44,23.5,22
 2003/10/06, 6:30,25.2,45,23.5,21.9
 2003/10/06, 6:45,25.2,45,23.6,21.9
 2003/10/06, 7:00,25.3,44,23.7,22
 2003/10/06, 7:15,25.3,45,23.9,21.9
 2003/10/06, 7:30,25.4,45,23.8,21.6
 2003/10/06, 7:45,25.4,45,24,21.5
 2003/10/06, 8:00,25.5,45,24,21.6
 2003/10/06, 8:15,25.5,45,23.9,21.6
 2003/10/06, 8:30,25.5,45,23.9,21.6
 2003/10/06, 8:45,25.5,45,23.9,21.6
 2003/10/06, 9:00,25.5,45,24,21.7
 2003/10/06, 9:15,25.5,45,23.9,22
 2003/10/06, 9:30,25.4,45,23.9,21.9
 2003/10/06, 9:45,25.4,45,23.9,22
 2003/10/06,10:00,25.4,45,23.9,22
 2003/10/06,10:15,25.4,45,23.9,21.8
 2003/10/06,10:30,25.5,45,23.9,21.8
 2003/10/06,10:45,25.5,45,23.9,21.9
 2003/10/06,11:00,25.4,45,23.9,21.8
 2003/10/06,11:15,25.4,45,23.8,21.8
 2003/10/06,11:30,25.3,45,24,21.9
 2003/10/06,11:45,25.3,46,24.3,21.9
 2003/10/06,12:00,25.2,47,24.2,21.9
 2003/10/06,12:15,25.2,47,24.1,22
 2003/10/06,12:30,25.1,47,24,22
 2003/10/06,12:45,25.1,47,24,22
 2003/10/06,13:00,25,47,23.9,22.1
 2003/10/06,13:15,25.1,47,23.9,22.1
 2003/10/06,13:30,25,47,23.8,22.1
 2003/10/06,13:45,25,47,23.8,22.2
 2003/10/06,14:00,24.9,47,23.8,22.2
 2003/10/06,14:15,25,47,23.8,22.2
 2003/10/06,14:30,25,47,23.7,22.2
 2003/10/06,14:45,24.9,47,23.8,22.3
 2003/10/06,15:00,24.9,47,23.7,22.3
 2003/10/06,15:15,24.8,47,23.8,22.3
 2003/10/06,15:30,24.7,47,23.6,22.4
 2003/10/06,15:45,24.7,47,23.5,22.4
 2003/10/06,16:00,24.6,47,23.4,22.4
 2003/10/06,16:15,24.6,47,23.4,22.5
 2003/10/06,16:30,24.6,47,23.3,22.1
 2003/10/06,16:45,24.6,47,23.4,22.1
 2003/10/06,17:00,24.6,47,23.4,22.1
 2003/10/06,17:15,24.5,47,23.3,22.1
 2003/10/06,17:30,24.5,47,23.3,22.2
 2003/10/06,17:45,24.5,47,23.4,22.2
 2003/10/06,18:00,24.5,47,23.3,22.2
 2003/10/06,18:15,24.6,48,23.5,22.3
 2003/10/06,18:30,24.7,48,23.3,22.3
 2003/10/06,18:45,24.7,49,23.3,22.3
 2003/10/06,19:00,24.7,48,23.4,22.2
 2003/10/06,19:15,24.7,48,23.6,22.1
 2003/10/06,19:30,24.5,47,23.6,22.1
 2003/10/06,19:45,24.5,47,23.4,22.2
 2003/10/06,20:00,24.5,49,23.3,22.2
 2003/10/06,20:15,24.6,49,23.4,22.2
 2003/10/06,20:30,24.7,48,23.3,22.2
 2003/10/06,20:45,24.7,48,23.3,22.7
 2003/10/06,21:00,24.7,47,23.3,21.4
 2003/10/06,21:15,24.7,48,23.5,21.4
 2003/10/06,21:30,24.8,48,23.5,21.5
 2003/10/06,21:45,24.9,48,23.4,21.5
 2003/10/06,22:00,25,48,23.5,21.5
 2003/10/06,22:15,25,48,23.5,21.6
 2003/10/06,22:30,25,48,23.5,21.6
 2003/10/06,22:45,25.1,48,23.5,21.6
 2003/10/06,23:00,25.2,48,23.5,22.1
 2003/10/06,23:15,25.2,48,23.5,22.1
 2003/10/06,23:30,25.3,48,23.6,22
 2003/10/06,23:45,25.3,48,23.6,22
 2003/10/07, 0:00,25.3,48,23.6,22
 2003/10/07, 0:15,25.3,48,23.7,22.1
 2003/10/07, 0:30,25.3,48,23.7,21.4
 2003/10/07, 0:45,25.4,48,23.7,21.4
 2003/10/07, 1:00,25.3,48,23.7,21.4
 2003/10/07, 1:15,25.4,48,24,21.5
 2003/10/07, 1:30,25.4,48,24.1,21.5
 2003/10/07, 1:45,25.4,48,24.3,21.5
 2003/10/07, 2:00,25.4,48,24.1,21.6
 2003/10/07, 2:15,25.3,48,23.9,21.6
 2003/10/07, 2:30,25.3,48,23.9,21.7
 2003/10/07, 2:45,25.2,47,23.8,21.7
 2003/10/07, 3:00,25.2,47,23.8,21.7
 2003/10/07, 3:15,25.1,47,23.8,21.8
 2003/10/07, 3:30,25,47,23.7,21.8
 2003/10/07, 3:45,25.1,47,23.6,21.8
 2003/10/07, 4:00,25,48,23.6,21.9
 2003/10/07, 4:15,25.1,48,23.6,21.9
 2003/10/07, 4:30,25,48,23.6,21.6
 2003/10/07, 4:45,25,48,23.6,21.6
 2003/10/07, 5:00,24.9,48,23.5,21.6
 2003/10/07, 5:15,24.9,48,23.6,21.7
 2003/10/07, 5:30,24.9,49,23.8,21.7
 2003/10/07, 5:45,24.9,49,24.1,21.7
 2003/10/07, 6:00,24.9,49,24,22.1
 2003/10/07, 6:15,24.8,48,23.8,21.8
 2003/10/07, 6:30,24.8,49,23.5,21.8
 2003/10/07, 6:45,25,49,23.8,21.8
 2003/10/07, 7:00,24.9,49,23.8,21.4
 2003/10/07, 7:15,24.9,49,23.7,21.5
 2003/10/07, 7:30,25,49,23.6,21.1
 2003/10/07, 7:45,25,49,23.6,21.1
 2003/10/07, 8:00,25,49,23.5,21.2
 2003/10/07, 8:15,25,48,23.5,21.3
 2003/10/07, 8:30,25,48,23.4,21.4
 2003/10/07, 8:45,25,48,23.5,21.4
 2003/10/07, 9:00,25.1,49,23.4,20.9
 2003/10/07, 9:15,25.1,48,23.4,21
 2003/10/07, 9:30,24.9,48,23.4,21
 2003/10/07, 9:45,24.8,48,23.4,21
 2003/10/07,10:00,24.8,48,23.3,21.1
 2003/10/07,10:15,24.7,48,23.4,21.1
 2003/10/07,10:30,24.7,48,23.3,21.1
 2003/10/07,10:45,24.6,48,23.3,21.2
 2003/10/07,11:00,24.6,48,23.3,21.2
 2003/10/07,11:15,24.6,48,23.3,21.2
 2003/10/07,11:30,24.5,48,23.3,21.3
 2003/10/07,11:45,24.5,48,23.3,21.3
 2003/10/07,12:00,24.5,48,23.2,21.4
 2003/10/07,12:15,24.5,48,23.3,21.4
 2003/10/07,12:30,24.5,48,23.2,21.4
 2003/10/07,12:45,24.5,47,23.2,21.5
 2003/10/07,13:00,24.5,47,23.2,21.5
 2003/10/07,13:15,24.5,47,23.2,21.5
 2003/10/07,13:30,24.5,47,23.2,21.6
 2003/10/07,13:45,24.5,46,23.2,21.6
 2003/10/07,14:00,24.5,46,23.2,21.6
 2003/10/07,14:15,24.5,46,23.2,21.7
 2003/10/07,14:30,24.5,46,23.2,21.7
 2003/10/07,14:45,24.6,46,23.1,21.7
 2003/10/07,15:00,24.6,46,23.1,21.7
 2003/10/07,15:15,24.6,46,23.1,21.8
 2003/10/07,15:30,24.6,46,23.2,21.9
 2003/10/07,15:45,24.6,46,23.2,21.9
 2003/10/07,16:00,24.6,46,23.3,21.9
 2003/10/07,16:15,24.6,47,23.3,21.9
 2003/10/07,16:30,24.6,47,23.4,21.8
 2003/10/07,16:45,24.6,47,23.4,21.8
 2003/10/07,17:00,24.6,48,23.4,21.8
 2003/10/07,17:15,24.6,48,23.4,21.8
 2003/10/07,17:30,24.6,48,23.4,21.9
 2003/10/07,17:45,24.5,48,23.3,21.9
 2003/10/07,18:00,24.5,48,23.5,21.9
 2003/10/07,18:15,24.6,51,23.4,21.9
 2003/10/07,18:30,24.7,52,23.6,22
 2003/10/07,18:45,24.7,51,23.8,22
 2003/10/07,19:00,24.8,50,23.9,22
 2003/10/07,19:15,24.8,49,23.8,21.8
 2003/10/07,19:30,24.8,50,23.5,21.8
 2003/10/07,19:45,24.8,49,23.5,21.9